Location: ??????
(38.0677°N, 22.9870°E)
Time: 15:33:34
(UTC+00:00)

CZ-2C R/B - Pass Details

Date: 05 August 2024
Orbit: 666 x 777 km, 98.4° (Epoch: 09 September)

Event Time Altitude Azimuth Distance (km) Brightness Sun altitude
Rises 02:57:23 0° 1° (N) 3,250 6.2 -7.5°
Reaches altitude 10° 02:59:57 10° 350° (N) 2,327 5.2 -7.0°
Maximum altitude 03:04:19 29° 292° (WNW) 1,402 3.5 -6.3°
Drops below altitude 10° 03:08:41 10° 234° (SW) 2,322 4.3 -5.5°
Enters shadow 03:09:56 - 227° (SW) 2,761 4.8 -5.3°
